Weather History for Willimantic, CT

Change the Weather History Date:

Tuesday, November 26, 2013

  Actual Average Record
Temperature  
Mean Temperature 36 °F -  
Max Temperature 41 °F 48 °F 72 °F (1979)
Min Temperature 32 °F 26 °F 11 °F (1978)
Degree Days  
Heating Degree Days 28    
Moisture  
Dew Point 24 °F    
Average Humidity 63    
Maximum Humidity 96    
Minimum Humidity 41    
Precipitation  
Precipitation 0.13 in - - ()
Sea Level Pressure  
Sea Level Pressure 30.24 in    
Wind  
Wind Speed 5 mph (SW)    
Max Wind Speed 8 mph    
Max Gust Speed -    
Visibility 8 miles    
Events Rain    
Averages and records for this station are not official NWS values.
T = Trace of Precipitation, MM = Missing Value Source: NWS Daily Summary

Daily Weather History Graph

Daily Weather History Graph

Search for Another Location

Airport:

Trip Planner

Search our weather history database for the weather conditions in past years. The results will help you decide how hot, cold, wet, or windy it might be!

Date:

Astronomy

Nov. 26, 2013 Rise Set
Actual Time 6:51 AM EST 4:20 PM EST
Civil Twilight 6:20 AM EST 4:51 PM EST
Nautical Twilight 5:46 AM EST 5:25 PM EST
Astronomical Twilight 5:12 AM EST 5:59 PM EST
Moon No Moon Rise 12:31 PM EST (11/26)
Length of Visible Light 10h 30m
Length of Day
9h 29m
Last Quarter, 41% of the Moon is Illuminated
Nov 26
Last Quarter
Dec 2
New
Dec 9
First Quarter
Dec 17
Full
Dec 25
Last Quarter

Hourly Weather History & Observations

Time (EST) Temp. Windchill Dew Point Humidity Pressure Visibility Wind Dir Wind Speed Gust Speed Precip Events Conditions
12:52 AM 32.0 °F 24.8 °F 17.1 °F 54% 30.32 in 10.0 mi SSW 8.1 mph - N/A   Clear
1:52 AM 33.1 °F 26.9 °F 17.1 °F 52% 30.31 in 10.0 mi SW 6.9 mph - N/A   Mostly Cloudy
2:52 AM 33.1 °F 27.7 °F 16.0 °F 50% 30.31 in 10.0 mi SW 5.8 mph - N/A   Clear
3:52 AM 33.1 °F 26.1 °F 14.0 °F 46% 30.30 in 10.0 mi SW 8.1 mph - N/A   Scattered Clouds
4:52 AM 33.1 °F 26.9 °F 15.1 °F 48% 30.30 in 10.0 mi SSW 6.9 mph - N/A   Partly Cloudy
5:52 AM 34.0 °F 29.8 °F 16.0 °F 48% 30.32 in 10.0 mi SW 4.6 mph - N/A   Overcast
6:52 AM 34.0 °F 28.8 °F 17.1 °F 50% 30.33 in 10.0 mi SSW 5.8 mph - N/A   Overcast
7:52 AM 35.1 °F 31.0 °F 17.1 °F 48% 30.33 in 10.0 mi SSW 4.6 mph - N/A   Overcast
8:52 AM 35.1 °F 31.0 °F 18.0 °F 50% 30.33 in 10.0 mi Variable 4.6 mph - N/A   Scattered Clouds
9:52 AM 37.0 °F 31.6 °F 17.1 °F 44% 30.34 in 10.0 mi West 6.9 mph - N/A   Mostly Cloudy
10:52 AM 37.9 °F 34.4 °F 16.0 °F 41% 30.31 in 10.0 mi Variable 4.6 mph - N/A   Overcast
11:52 AM 39.0 °F 34.8 °F 18.0 °F 43% 30.30 in 10.0 mi South 5.8 mph - N/A   Overcast
12:52 PM 39.9 °F 35.8 °F 18.0 °F 41% 30.29 in 10.0 mi SW 5.8 mph - N/A   Overcast
1:52 PM 39.9 °F - 18.0 °F 41% 30.27 in 10.0 mi Calm Calm - N/A   Overcast
2:52 PM 39.9 °F 37.8 °F 19.0 °F 43% 30.27 in 10.0 mi South 3.5 mph - N/A   Overcast
3:52 PM 41.0 °F - 19.0 °F 41% 30.26 in 10.0 mi Calm Calm - N/A   Overcast
4:52 PM 39.0 °F 36.8 °F 19.9 °F 46% 30.25 in 10.0 mi SE 3.5 mph - N/A   Overcast
5:52 PM 37.0 °F - 28.0 °F 70% 30.24 in 9.0 mi Calm Calm - 0.00 in Rain Light Rain
6:11 PM 36.0 °F - 28.9 °F 76% 30.23 in 8.0 mi Calm Calm - 0.01 in Rain Light Rain
6:52 PM 35.1 °F - 32.0 °F 89% 30.23 in 7.0 mi Calm Calm - 0.02 in Rain Light Rain
7:52 PM 34.0 °F - 33.1 °F 96% 30.21 in 6.0 mi Calm Calm - 0.03 in Rain Light Rain
8:52 PM 35.1 °F 32.2 °F 33.1 °F 92% 30.16 in 6.0 mi North 3.5 mph - 0.01 in Rain Light Rain
9:16 PM 36.0 °F 33.3 °F 34.0 °F 93% 30.13 in 6.0 mi North 3.5 mph - 0.00 in Rain Light Rain
9:21 PM 36.0 °F 33.3 °F 34.0 °F 93% 30.13 in 5.0 mi North 3.5 mph - 0.00 in Rain Light Rain
9:29 PM 36.0 °F 33.3 °F 34.0 °F 93% 30.12 in 4.0 mi North 3.5 mph - 0.00 in Rain Light Rain
9:52 PM 37.0 °F - 35.1 °F 93% 30.12 in 5.0 mi Calm Calm - 0.00 in Rain Light Rain
10:52 PM 39.0 °F - 37.0 °F 93% 30.05 in 5.0 mi Calm Calm - 0.02 in Rain Light Rain
11:52 PM 41.0 °F - 39.9 °F 96% 29.99 in 5.0 mi Calm Calm - 0.05 in Rain Light Rain